Location: Caltech
(34.1382°N, 118.1253°W)
Time: 01:25:30
(UTC-07:00)

Cosmos 2237 Rocket - Visible Passes

Search period start: 30 May 2015 00:00
Search period end: 09 June 2015 00:00
Orbit: 834 x 851 km, 71.0° (Epoch: 29 May)

Date Brightness Start Highest point End Pass type
(mag) Time Alt. Az. Time Alt. Az. Time Alt. Az.
30 May 3.3 21:14:13 20° SE 21:15:47 23° ESE 21:20:14 10° NE visible
30 May 3.3 22:55:55 19° SW 22:59:37 40° WNW 23:04:57 10° N visible
31 May 3.4 20:57:51 14° SE 21:01:00 22° ESE 21:05:20 10° NE visible
31 May 3.3 22:39:31 10° SW 22:44:49 43° WNW 22:50:12 10° N visible
01 Jun 3.4 20:42:15 10° SSE 20:46:14 21° ESE 20:50:26 10° NE visible
01 Jun 3.2 22:24:34 10° SW 22:30:01 45° WNW 22:35:26 10° N visible
02 Jun 3.5 20:27:38 10° SE 20:31:27 19° ESE 20:35:31 10° NE visible
02 Jun 3.1 22:09:44 10° SW 22:15:12 47° WNW 22:20:41 10° N visible
03 Jun 3.1 21:54:53 10° SW 22:00:24 50° WNW 22:05:55 10° N visible
04 Jun 3.0 21:40:03 10° SW 21:45:36 52° WNW 21:51:09 10° N visible
05 Jun 3.0 21:25:13 10° SW 21:30:47 55° WNW 21:36:23 10° NNE visible
06 Jun 2.9 21:10:23 10° SW 21:15:59 58° WNW 21:21:36 10° NNE visible
07 Jun 2.8 20:55:34 10° SSW 21:01:11 62° WNW 21:06:50 10° NNE visible
08 Jun 2.8 20:40:45 10° SSW 20:46:23 65° WNW 20:52:03 10° NNE visible
